RADUGA 6 [-]

Last updated on Sept. 26, 2020, 5:40 a.m. UTC

1 11708U 80016A   20269.63867942 -.00000283  00000-0  00000-0 0  9990
2 11708  10.6603 309.6997 0000923 223.1224 154.1257  1.00332994101208
UTC
Height (km)
Latitude
Longitude
Inclination
Orbital Period
UTC large
Height (km)
Speed (km/s)
/
Latitude / Longitude
Inclination (degrees)
Orbital Period (minutes)
Azimuth
Elevation
Range (km)
Doppler Factor
iOS Compass Heading
iOS Angle

Next 30 passes for location: Hong Kong

Rise time Rise Azimuth (degrees) Set time Set Azimuth (degrees) Duration Max altitude (degrees)

No matching passes for this satellites